Location: Moy Burn
(57.3833°N, 4.0667°W)
Time: 10:19:30
(UTC+00:00)

Sich 1 - Pass Details

Date: 08 August 2020
Orbit: 593 x 626 km, 82.5° (Epoch: 18 September)

Event Time Altitude Azimuth Distance (km) Brightness Sun altitude
Rises 21:37:50 0° 204° (SSW) 2,903 6.2 -9.3°
Reaches altitude 10° 21:40:05 10° 209° (SSW) 2,002 5.5 -9.5°
Maximum altitude 21:44:27 55° 288° (WNW) 757 3.8 -9.9°
Drops below altitude 10° 21:48:52 10° 7° (N) 2,016 6.4 -10.3°
Sets 21:51:09 0° 12° (NNE) 2,926 7.2 -10.4°
